Hurlburt Field, FL

8:29 PM CDT on July 23, 2017 (GMT -0500)
Hurlburt

Weather History for KHRT - October, 2012

Change the Weather History Date:

Tuesday, October 2, 2012

  Actual Average Record
Temperature  
Mean Temperature 71 °F -  
Max Temperature 78 °F 80 °F 91 °F (2005)
Min Temperature 63 °F 64 °F 51 °F (2001)
Cooling Degree Days 6    
Growing Degree Days 21 (Base 50)    
Moisture  
Dew Point 64 °F    
Average Humidity 78    
Maximum Humidity 94    
Minimum Humidity 61    
Precipitation  
Precipitation 0.00 in - - ()
Sea Level Pressure  
Sea Level Pressure 29.83 in    
Wind  
Wind Speed 4 mph (WNW)    
Max Wind Speed 13 mph    
Max Gust Speed 20 mph    
Visibility 10 miles    
Events      
Averages and records for this station are not official NWS values.
T = Trace of Precipitation, MM = Missing Value Source: NWS Daily Summary

Daily Weather History Graph

Daily Weather History Graph

Search for Another Location

Airport or City:

Trip Planner

Search our weather history database for the weather conditions in past years. The results will help you decide how hot, cold, wet, or windy it might be!

Date:

Astronomy

Oct. 02, 2012 Rise Set
Actual Time 6:41 AM CDT 6:30 PM CDT
Civil Twilight 6:17 AM CDT 6:54 PM CDT
Nautical Twilight 5:49 AM CDT 7:22 PM CDT
Astronomical Twilight 5:21 AM CDT 7:49 PM CDT
Moon 7:57 PM CDT (10/2) 8:54 AM CDT (10/2)
Length of Visible Light 12h 37m
Length of Day
11h 49m
Waning Gibbous, 94% of the Moon is Illuminated
Oct 2
Waning Gibbous
Oct 8
Last Quarter
Oct 15
New
Oct 21
First Quarter
Oct 29
Full

Hourly Weather History & Observations

Time (CDT) Temp. Dew Point Humidity Pressure Visibility Wind Dir Wind Speed Gust Speed Precip Events Conditions
12:51 AM 69.8 °F 62.6 °F 78% 29.73 in 10.0 mi West 4.6 mph - N/A   Overcast
12:55 AM 69.6 °F 63.3 °F 80% 29.73 in 10.0 mi West 3.5 mph - N/A   Overcast
12:56 AM 69.8 °F 62.6 °F 78% 29.73 in 10.0 mi West 3.5 mph - N/A   Overcast
1:10 AM 69.8 °F 62.6 °F 78% 29.73 in 10.0 mi WNW 3.5 mph - N/A   Overcast
1:17 AM 69.8 °F 62.6 °F 78% 29.73 in 10.0 mi Variable 3.5 mph - N/A   Overcast
1:55 AM 68.7 °F 63.3 °F 83% 29.73 in 10.0 mi Calm Calm - N/A   Overcast
2:38 AM 68.0 °F 62.6 °F 83% 29.73 in 10.0 mi Calm Calm - N/A   Mostly Cloudy
2:55 AM 67.8 °F 63.0 °F 84% 29.73 in 10.0 mi Calm Calm - N/A   Mostly Cloudy
2:57 AM 68.0 °F 62.6 °F 83% 29.73 in 10.0 mi Calm Calm - N/A   Scattered Clouds
2:58 AM 68.0 °F 62.6 °F 83% 29.73 in 10.0 mi Calm Calm - N/A   Mostly Cloudy
3:04 AM 68.0 °F 62.6 °F 83% 29.73 in 10.0 mi Calm Calm - N/A   Mostly Cloudy
3:14 AM 68.0 °F 64.4 °F 88% 29.73 in 10.0 mi Calm Calm - N/A   Scattered Clouds
3:21 AM 68.0 °F 64.4 °F 88% 29.73 in 10.0 mi Calm Calm - N/A   Mostly Cloudy
3:41 AM 66.2 °F 64.4 °F 94% 29.74 in 10.0 mi Calm Calm - N/A   Scattered Clouds
3:55 AM 66.0 °F 63.5 °F 92% 29.74 in 10.0 mi Calm Calm - N/A   Partly Cloudy
4:55 AM 65.8 °F 63.3 °F 92% 29.76 in 10.0 mi Calm Calm - N/A   Scattered Clouds
5:55 AM 66.2 °F 63.9 °F 92% 29.77 in 10.0 mi NNW 3.5 mph - N/A   Overcast
6:28 AM 66.2 °F 64.4 °F 94% 29.78 in 10.0 mi NW 4.6 mph - N/A   Overcast
6:55 AM 66.4 °F 63.7 °F 91% 29.79 in 10.0 mi NW 4.6 mph - N/A   Overcast
7:22 AM 66.2 °F 64.4 °F 94% 29.80 in 10.0 mi NNW 5.8 mph - N/A   Overcast
7:55 AM 66.6 °F 63.7 °F 90% 29.82 in 10.0 mi NW 5.8 mph - N/A   Mostly Cloudy
8:22 AM 68.0 °F 64.4 °F 88% 29.83 in 10.0 mi NW 9.2 mph - N/A   Mostly Cloudy
8:55 AM 68.7 °F 64.0 °F 85% 29.84 in 10.0 mi NW 5.8 mph - N/A   Overcast
9:40 AM 71.6 °F 64.4 °F 78% 29.86 in 10.0 mi NW 9.2 mph - N/A   Scattered Clouds
9:55 AM 73.0 °F 63.7 °F 72% 29.86 in 10.0 mi NW 8.1 mph - N/A   Scattered Clouds
10:10 AM 71.6 °F 62.6 °F 73% 29.86 in 10.0 mi West 10.4 mph - N/A   Mostly Cloudy
10:24 AM 75.2 °F 64.4 °F 69% 29.86 in 10.0 mi West 10.4 mph 19.6 mph N/A   Scattered Clouds
10:55 AM 74.7 °F 64.0 °F 69% 29.87 in 10.0 mi WNW 12.7 mph - N/A   Partly Cloudy
11:47 AM 77.0 °F 64.4 °F 65% 29.88 in 10.0 mi West 8.1 mph - N/A   Mostly Cloudy
11:48 AM 77.0 °F 64.4 °F 65% 29.88 in 10.0 mi Variable 6.9 mph - N/A   Mostly Cloudy
11:55 AM 75.9 °F 64.6 °F 68% 29.87 in 10.0 mi West 12.7 mph - N/A   Mostly Cloudy
12:01 PM 75.2 °F 64.4 °F 69% 29.87 in 10.0 mi WNW 11.5 mph - N/A   Mostly Cloudy
12:10 PM 75.2 °F 64.4 °F 69% 29.87 in 10.0 mi West 11.5 mph - N/A   Scattered Clouds
12:46 PM 77.0 °F 64.4 °F 65% 29.87 in 10.0 mi WNW 9.2 mph - N/A   Mostly Cloudy
12:55 PM 76.3 °F 64.4 °F 67% 29.87 in 10.0 mi WNW 8.1 mph - N/A   Mostly Cloudy
1:07 PM 77.0 °F 64.4 °F 65% 29.87 in 10.0 mi Variable 6.9 mph - N/A   Scattered Clouds
1:55 PM 77.4 °F 64.4 °F 64% 29.87 in 10.0 mi West 4.6 mph - N/A   Clear
2:40 PM 78.8 °F 64.4 °F 61% 29.86 in 10.0 mi Variable 4.6 mph - N/A   Mostly Cloudy
2:55 PM 77.9 °F 64.4 °F 63% 29.86 in 10.0 mi SW 8.1 mph - N/A   Mostly Cloudy
3:28 PM 77.0 °F 64.4 °F 65% 29.87 in 10.0 mi SSW 11.5 mph - N/A   Scattered Clouds
3:55 PM 77.7 °F 63.9 °F 62% 29.87 in 10.0 mi Variable 6.9 mph - N/A   Partly Cloudy
4:55 PM 76.8 °F 64.6 °F 66% 29.88 in 10.0 mi SW 4.6 mph - N/A   Clear
5:55 PM 75.7 °F 63.7 °F 66% 29.88 in 10.0 mi West 8.1 mph - N/A   Clear
6:55 PM 72.9 °F 62.2 °F 69% 29.91 in 10.0 mi NW 4.6 mph - N/A   Clear
7:55 PM 69.8 °F 65.1 °F 85% 29.94 in 10.0 mi North 4.6 mph - N/A   Clear
8:55 PM 66.4 °F 63.0 °F 89% 29.96 in 10.0 mi North 3.5 mph - N/A   Clear
9:55 PM 64.9 °F 62.4 °F 92% 29.99 in 10.0 mi North 6.9 mph - N/A   Clear
10:55 PM 64.4 °F 61.5 °F 90% 30.00 in 10.0 mi NNE 5.8 mph - N/A   Partly Cloudy
11:55 PM 63.9 °F 61.5 °F 92% 30.01 in 10.0 mi NNE 4.6 mph - N/A   Scattered Clouds